<?xml version="1.0" encoding="UTF-8" standalone="no" ?>
<gpx xmlns="http://www.topografix.com/GPX/1/1" xmlns:xsi="http://www.w3.org/2001/XMLSchema-instance" xsi:schemaLocation="http://www.topografix.com/GPX/1/1 http://www.topografix.com/GPX/1/1/gpx.xsd" version="1.1" creator="VisuGPX - https://www.visugpx.com">
  <metadata>
    <name>Trigavou St Jacut</name>
    <desc><![CDATA[Petites routes et chemins]]></desc>
  </metadata>
  <trk>
    <name><![CDATA[14 sept. 2014]]></name>
    <cmt><![CDATA[14:32:50]]></cmt>
    <desc><![CDATA[comment ...]]></desc>
    <trkseg>
      <trkpt lat="48.52469" lon="-2.0821">
        <ele>-48</ele>
        <time>2014-09-14T14:06:48Z</time>
      </trkpt>
      <trkpt lat="48.52481" lon="-2.08228">
        <ele>68</ele>
        <time>2014-09-14T14:33:36Z</time>
      </trkpt>
      <trkpt lat="48.52475" lon="-2.08233">
        <ele>64</ele>
        <time>2014-09-14T14:33:49Z</time>
      </trkpt>
      <trkpt lat="48.52473" lon="-2.08235">
        <ele>64</ele>
        <time>2014-09-14T14:33:55Z</time>
      </trkpt>
      <trkpt lat="48.52474" lon="-2.08245">
        <ele>65</ele>
        <time>2014-09-14T14:34:07Z</time>
      </trkpt>
      <trkpt lat="48.52466" lon="-2.08249">
        <ele>63</ele>
        <time>2014-09-14T14:34:13Z</time>
      </trkpt>
      <trkpt lat="48.5242" lon="-2.08241">
        <ele>63</ele>
        <time>2014-09-14T14:34:32Z</time>
      </trkpt>
      <trkpt lat="48.5241" lon="-2.08234">
        <ele>62</ele>
        <time>2014-09-14T14:34:37Z</time>
      </trkpt>
      <trkpt lat="48.52407" lon="-2.08208">
        <ele>52</ele>
        <time>2014-09-14T14:34:47Z</time>
      </trkpt>
      <trkpt lat="48.52405" lon="-2.08206">
        <ele>55</ele>
        <time>2014-09-14T14:34:52Z</time>
      </trkpt>
      <trkpt lat="48.52413" lon="-2.08187">
        <ele>58</ele>
        <time>2014-09-14T14:35:23Z</time>
      </trkpt>
      <trkpt lat="48.52418" lon="-2.08146">
        <ele>60</ele>
        <time>2014-09-14T14:35:33Z</time>
      </trkpt>
      <trkpt lat="48.52448" lon="-2.08133">
        <ele>62</ele>
        <time>2014-09-14T14:35:44Z</time>
      </trkpt>
      <trkpt lat="48.52494" lon="-2.08136">
        <ele>61</ele>
        <time>2014-09-14T14:35:53Z</time>
      </trkpt>
      <trkpt lat="48.52542" lon="-2.0811">
        <ele>58</ele>
        <time>2014-09-14T14:36:05Z</time>
      </trkpt>
      <trkpt lat="48.52549" lon="-2.08095">
        <ele>58</ele>
        <time>2014-09-14T14:36:09Z</time>
      </trkpt>
      <trkpt lat="48.52549" lon="-2.0809">
        <ele>61</ele>
        <time>2014-09-14T14:38:01Z</time>
      </trkpt>
      <trkpt lat="48.52548" lon="-2.08088">
        <ele>62</ele>
        <time>2014-09-14T14:38:08Z</time>
      </trkpt>
      <trkpt lat="48.52561" lon="-2.08083">
        <ele>65</ele>
        <time>2014-09-14T14:38:41Z</time>
      </trkpt>
      <trkpt lat="48.52625" lon="-2.08045">
        <ele>69</ele>
        <time>2014-09-14T14:39:11Z</time>
      </trkpt>
      <trkpt lat="48.52686" lon="-2.08027">
        <ele>71</ele>
        <time>2014-09-14T14:39:41Z</time>
      </trkpt>
      <trkpt lat="48.52707" lon="-2.08035">
        <ele>73</ele>
        <time>2014-09-14T14:39:51Z</time>
      </trkpt>
      <trkpt lat="48.52763" lon="-2.08069">
        <ele>72</ele>
        <time>2014-09-14T14:40:11Z</time>
      </trkpt>
      <trkpt lat="48.52831" lon="-2.08071">
        <ele>71</ele>
        <time>2014-09-14T14:40:31Z</time>
      </trkpt>
      <trkpt lat="48.52914" lon="-2.08072">
        <ele>71</ele>
        <time>2014-09-14T14:40:51Z</time>
      </trkpt>
      <trkpt lat="48.52977" lon="-2.08064">
        <ele>71</ele>
        <time>2014-09-14T14:41:08Z</time>
      </trkpt>
      <trkpt lat="48.52988" lon="-2.08064">
        <ele>73</ele>
        <time>2014-09-14T14:41:11Z</time>
      </trkpt>
      <trkpt lat="48.53074" lon="-2.08072">
        <ele>70</ele>
        <time>2014-09-14T14:41:31Z</time>
      </trkpt>
      <trkpt lat="48.53143" lon="-2.08087">
        <ele>68</ele>
        <time>2014-09-14T14:41:49Z</time>
      </trkpt>
      <trkpt lat="48.53159" lon="-2.0809">
        <ele>69</ele>
        <time>2014-09-14T14:41:54Z</time>
      </trkpt>
      <trkpt lat="48.53254" lon="-2.08101">
        <ele>72</ele>
        <time>2014-09-14T14:42:23Z</time>
      </trkpt>
      <trkpt lat="48.53286" lon="-2.08102">
        <ele>73</ele>
        <time>2014-09-14T14:42:33Z</time>
      </trkpt>
      <trkpt lat="48.53372" lon="-2.08048">
        <ele>75</ele>
        <time>2014-09-14T14:43:03Z</time>
      </trkpt>
      <trkpt lat="48.53462" lon="-2.08004">
        <ele>77</ele>
        <time>2014-09-14T14:43:33Z</time>
      </trkpt>
      <trkpt lat="48.53556" lon="-2.07953">
        <ele>80</ele>
        <time>2014-09-14T14:44:03Z</time>
      </trkpt>
      <trkpt lat="48.53647" lon="-2.07936">
        <ele>79</ele>
        <time>2014-09-14T14:44:33Z</time>
      </trkpt>
      <trkpt lat="48.5368" lon="-2.07943">
        <ele>76</ele>
        <time>2014-09-14T14:44:43Z</time>
      </trkpt>
      <trkpt lat="48.53825" lon="-2.07972">
        <ele>73</ele>
        <time>2014-09-14T14:45:13Z</time>
      </trkpt>
      <trkpt lat="48.53983" lon="-2.08004">
        <ele>72</ele>
        <time>2014-09-14T14:45:43Z</time>
      </trkpt>
      <trkpt lat="48.54002" lon="-2.08008">
        <ele>72</ele>
        <time>2014-09-14T14:45:47Z</time>
      </trkpt>
      <trkpt lat="48.54063" lon="-2.08012">
        <ele>72</ele>
        <time>2014-09-14T14:45:59Z</time>
      </trkpt>
      <trkpt lat="48.54208" lon="-2.07956">
        <ele>63</ele>
        <time>2014-09-14T14:46:37Z</time>
      </trkpt>
      <trkpt lat="48.54252" lon="-2.07958">
        <ele>63</ele>
        <time>2014-09-14T14:46:47Z</time>
      </trkpt>
      <trkpt lat="48.54356" lon="-2.07988">
        <ele>60</ele>
        <time>2014-09-14T14:47:09Z</time>
      </trkpt>
      <trkpt lat="48.54458" lon="-2.08038">
        <ele>62</ele>
        <time>2014-09-14T14:47:34Z</time>
      </trkpt>
      <trkpt lat="48.54497" lon="-2.08039">
        <ele>61</ele>
        <time>2014-09-14T14:47:44Z</time>
      </trkpt>
      <trkpt lat="48.54501" lon="-2.08049">
        <ele>61</ele>
        <time>2014-09-14T14:47:46Z</time>
      </trkpt>
      <trkpt lat="48.545" lon="-2.08068">
        <ele>62</ele>
        <time>2014-09-14T14:47:49Z</time>
      </trkpt>
      <trkpt lat="48.54499" lon="-2.08074">
        <ele>63</ele>
        <time>2014-09-14T14:47:50Z</time>
      </trkpt>
      <trkpt lat="48.54485" lon="-2.0818">
        <ele>65</ele>
        <time>2014-09-14T14:48:08Z</time>
      </trkpt>
      <trkpt lat="48.54506" lon="-2.08228">
        <ele>64</ele>
        <time>2014-09-14T14:48:18Z</time>
      </trkpt>
      <trkpt lat="48.54547" lon="-2.08254">
        <ele>63</ele>
        <time>2014-09-14T14:48:28Z</time>
      </trkpt>
      <trkpt lat="48.54658" lon="-2.0829">
        <ele>62</ele>
        <time>2014-09-14T14:48:58Z</time>
      </trkpt>
      <trkpt lat="48.54776" lon="-2.08315">
        <ele>60</ele>
        <time>2014-09-14T14:49:28Z</time>
      </trkpt>
      <trkpt lat="48.54782" lon="-2.08324">
        <ele>60</ele>
        <time>2014-09-14T14:49:30Z</time>
      </trkpt>
      <trkpt lat="48.54816" lon="-2.08448">
        <ele>62</ele>
        <time>2014-09-14T14:49:50Z</time>
      </trkpt>
      <trkpt lat="48.54824" lon="-2.08682">
        <ele>58</ele>
        <time>2014-09-14T14:50:20Z</time>
      </trkpt>
      <trkpt lat="48.54828" lon="-2.0876">
        <ele>57</ele>
        <time>2014-09-14T14:50:30Z</time>
      </trkpt>
      <trkpt lat="48.54817" lon="-2.08891">
        <ele>57</ele>
        <time>2014-09-14T14:50:49Z</time>
      </trkpt>
      <trkpt lat="48.54804" lon="-2.09047">
        <ele>63</ele>
        <time>2014-09-14T14:51:12Z</time>
      </trkpt>
      <trkpt lat="48.54835" lon="-2.09088">
        <ele>62</ele>
        <time>2014-09-14T14:51:23Z</time>
      </trkpt>
      <trkpt lat="48.54869" lon="-2.09108">
        <ele>62</ele>
        <time>2014-09-14T14:51:33Z</time>
      </trkpt>
      <trkpt lat="48.54969" lon="-2.09163">
        <ele>67</ele>
        <time>2014-09-14T14:52:03Z</time>
      </trkpt>
      <trkpt lat="48.55097" lon="-2.09237">
        <ele>64</ele>
        <time>2014-09-14T14:52:33Z</time>
      </trkpt>
      <trkpt lat="48.55171" lon="-2.0933">
        <ele>63</ele>
        <time>2014-09-14T14:52:54Z</time>
      </trkpt>
      <trkpt lat="48.55243" lon="-2.09527">
        <ele>65</ele>
        <time>2014-09-14T14:53:24Z</time>
      </trkpt>
      <trkpt lat="48.55259" lon="-2.09605">
        <ele>66</ele>
        <time>2014-09-14T14:53:35Z</time>
      </trkpt>
      <trkpt lat="48.55232" lon="-2.09741">
        <ele>62</ele>
        <time>2014-09-14T14:53:52Z</time>
      </trkpt>
      <trkpt lat="48.55224" lon="-2.09961">
        <ele>59</ele>
        <time>2014-09-14T14:54:15Z</time>
      </trkpt>
      <trkpt lat="48.55175" lon="-2.10231">
        <ele>58</ele>
        <time>2014-09-14T14:54:45Z</time>
      </trkpt>
      <trkpt lat="48.55109" lon="-2.10506">
        <ele>51</ele>
        <time>2014-09-14T14:55:15Z</time>
      </trkpt>
      <trkpt lat="48.55034" lon="-2.10795">
        <ele>44</ele>
        <time>2014-09-14T14:55:45Z</time>
      </trkpt>
      <trkpt lat="48.55011" lon="-2.10869">
        <ele>44</ele>
        <time>2014-09-14T14:56:03Z</time>
      </trkpt>
      <trkpt lat="48.54988" lon="-2.11021">
        <ele>46</ele>
        <time>2014-09-14T14:56:33Z</time>
      </trkpt>
      <trkpt lat="48.54953" lon="-2.11173">
        <ele>47</ele>
        <time>2014-09-14T14:57:03Z</time>
      </trkpt>
      <trkpt lat="48.5492" lon="-2.11343">
        <ele>44</ele>
        <time>2014-09-14T14:57:33Z</time>
      </trkpt>
      <trkpt lat="48.54917" lon="-2.11362">
        <ele>46</ele>
        <time>2014-09-14T14:57:36Z</time>
      </trkpt>
      <trkpt lat="48.54856" lon="-2.11529">
        <ele>48</ele>
        <time>2014-09-14T14:58:06Z</time>
      </trkpt>
      <trkpt lat="48.54814" lon="-2.11625">
        <ele>46</ele>
        <time>2014-09-14T14:58:26Z</time>
      </trkpt>
      <trkpt lat="48.54832" lon="-2.11643">
        <ele>47</ele>
        <time>2014-09-14T14:58:34Z</time>
      </trkpt>
      <trkpt lat="48.54883" lon="-2.11642">
        <ele>44</ele>
        <time>2014-09-14T14:58:46Z</time>
      </trkpt>
      <trkpt lat="48.5498" lon="-2.11687">
        <ele>44</ele>
        <time>2014-09-14T14:59:07Z</time>
      </trkpt>
      <trkpt lat="48.55099" lon="-2.11789">
        <ele>44</ele>
        <time>2014-09-14T14:59:34Z</time>
      </trkpt>
      <trkpt lat="48.55215" lon="-2.11847">
        <ele>45</ele>
        <time>2014-09-14T14:59:59Z</time>
      </trkpt>
      <trkpt lat="48.55291" lon="-2.11885">
        <ele>45</ele>
        <time>2014-09-14T15:00:17Z</time>
      </trkpt>
      <trkpt lat="48.553" lon="-2.11892">
        <ele>47</ele>
        <time>2014-09-14T15:00:19Z</time>
      </trkpt>
      <trkpt lat="48.55338" lon="-2.11987">
        <ele>50</ele>
        <time>2014-09-14T15:00:36Z</time>
      </trkpt>
      <trkpt lat="48.55389" lon="-2.12108">
        <ele>43</ele>
        <time>2014-09-14T15:00:58Z</time>
      </trkpt>
      <trkpt lat="48.55459" lon="-2.12224">
        <ele>41</ele>
        <time>2014-09-14T15:01:18Z</time>
      </trkpt>
      <trkpt lat="48.55552" lon="-2.12341">
        <ele>44</ele>
        <time>2014-09-14T15:01:38Z</time>
      </trkpt>
      <trkpt lat="48.55643" lon="-2.12482">
        <ele>37</ele>
        <time>2014-09-14T15:01:58Z</time>
      </trkpt>
      <trkpt lat="48.55662" lon="-2.12533">
        <ele>37</ele>
        <time>2014-09-14T15:02:08Z</time>
      </trkpt>
      <trkpt lat="48.55624" lon="-2.12717">
        <ele>38</ele>
        <time>2014-09-14T15:02:30Z</time>
      </trkpt>
      <trkpt lat="48.55569" lon="-2.12886">
        <ele>35</ele>
        <time>2014-09-14T15:02:51Z</time>
      </trkpt>
      <trkpt lat="48.55543" lon="-2.13218">
        <ele>30</ele>
        <time>2014-09-14T15:03:21Z</time>
      </trkpt>
      <trkpt lat="48.55542" lon="-2.13234">
        <ele>32</ele>
        <time>2014-09-14T15:03:23Z</time>
      </trkpt>
      <trkpt lat="48.55541" lon="-2.1325">
        <ele>34</ele>
        <time>2014-09-14T15:03:25Z</time>
      </trkpt>
      <trkpt lat="48.55538" lon="-2.13257">
        <ele>32</ele>
        <time>2014-09-14T15:03:26Z</time>
      </trkpt>
      <trkpt lat="48.55502" lon="-2.13408">
        <ele>33</ele>
        <time>2014-09-14T15:03:45Z</time>
      </trkpt>
      <trkpt lat="48.55492" lon="-2.13416">
        <ele>33</ele>
        <time>2014-09-14T15:03:47Z</time>
      </trkpt>
      <trkpt lat="48.5544" lon="-2.13443">
        <ele>28</ele>
        <time>2014-09-14T15:03:57Z</time>
      </trkpt>
      <trkpt lat="48.55364" lon="-2.13647">
        <ele>32</ele>
        <time>2014-09-14T15:04:26Z</time>
      </trkpt>
      <trkpt lat="48.55343" lon="-2.13749">
        <ele>34</ele>
        <time>2014-09-14T15:04:40Z</time>
      </trkpt>
      <trkpt lat="48.55339" lon="-2.13751">
        <ele>34</ele>
        <time>2014-09-14T15:04:41Z</time>
      </trkpt>
      <trkpt lat="48.55292" lon="-2.13876">
        <ele>29</ele>
        <time>2014-09-14T15:05:01Z</time>
      </trkpt>
      <trkpt lat="48.55298" lon="-2.13888">
        <ele>29</ele>
        <time>2014-09-14T15:05:03Z</time>
      </trkpt>
      <trkpt lat="48.55361" lon="-2.13902">
        <ele>32</ele>
        <time>2014-09-14T15:05:15Z</time>
      </trkpt>
      <trkpt lat="48.55521" lon="-2.1399">
        <ele>31</ele>
        <time>2014-09-14T15:05:45Z</time>
      </trkpt>
      <trkpt lat="48.55525" lon="-2.13993">
        <ele>32</ele>
        <time>2014-09-14T15:05:46Z</time>
      </trkpt>
      <trkpt lat="48.55529" lon="-2.14005">
        <ele>31</ele>
        <time>2014-09-14T15:05:48Z</time>
      </trkpt>
      <trkpt lat="48.55529" lon="-2.14093">
        <ele>27</ele>
        <time>2014-09-14T15:05:57Z</time>
      </trkpt>
      <trkpt lat="48.55581" lon="-2.14377">
        <ele>21</ele>
        <time>2014-09-14T15:06:16Z</time>
      </trkpt>
      <trkpt lat="48.55592" lon="-2.14395">
        <ele>22</ele>
        <time>2014-09-14T15:06:18Z</time>
      </trkpt>
      <trkpt lat="48.55704" lon="-2.14543">
        <ele>23</ele>
        <time>2014-09-14T15:06:42Z</time>
      </trkpt>
      <trkpt lat="48.55712" lon="-2.14561">
        <ele>26</ele>
        <time>2014-09-14T15:06:45Z</time>
      </trkpt>
      <trkpt lat="48.5571" lon="-2.14567">
        <ele>24</ele>
        <time>2014-09-14T15:06:46Z</time>
      </trkpt>
      <trkpt lat="48.55713" lon="-2.14596">
        <ele>26</ele>
        <time>2014-09-14T15:06:51Z</time>
      </trkpt>
      <trkpt lat="48.55722" lon="-2.14681">
        <ele>29</ele>
        <time>2014-09-14T15:07:05Z</time>
      </trkpt>
      <trkpt lat="48.55735" lon="-2.14801">
        <ele>34</ele>
        <time>2014-09-14T15:07:34Z</time>
      </trkpt>
      <trkpt lat="48.55736" lon="-2.14799">
        <ele>35</ele>
        <time>2014-09-14T15:07:35Z</time>
      </trkpt>
      <trkpt lat="48.55734" lon="-2.14795">
        <ele>35</ele>
        <time>2014-09-14T15:07:37Z</time>
      </trkpt>
      <trkpt lat="48.55731" lon="-2.14796">
        <ele>34</ele>
        <time>2014-09-14T15:07:39Z</time>
      </trkpt>
      <trkpt lat="48.55732" lon="-2.14799">
        <ele>35</ele>
        <time>2014-09-14T15:07:41Z</time>
      </trkpt>
      <trkpt lat="48.55734" lon="-2.14798">
        <ele>34</ele>
        <time>2014-09-14T15:07:42Z</time>
      </trkpt>
      <trkpt lat="48.55735" lon="-2.14794">
        <ele>34</ele>
        <time>2014-09-14T15:07:44Z</time>
      </trkpt>
      <trkpt lat="48.55746" lon="-2.14885">
        <ele>35</ele>
        <time>2014-09-14T15:08:14Z</time>
      </trkpt>
      <trkpt lat="48.55782" lon="-2.15054">
        <ele>31</ele>
        <time>2014-09-14T15:08:41Z</time>
      </trkpt>
      <trkpt lat="48.55841" lon="-2.15209">
        <ele>29</ele>
        <time>2014-09-14T15:09:00Z</time>
      </trkpt>
      <trkpt lat="48.55934" lon="-2.15337">
        <ele>23</ele>
        <time>2014-09-14T15:09:20Z</time>
      </trkpt>
      <trkpt lat="48.56005" lon="-2.15502">
        <ele>14</ele>
        <time>2014-09-14T15:09:40Z</time>
      </trkpt>
      <trkpt lat="48.56089" lon="-2.15648">
        <ele>12</ele>
        <time>2014-09-14T15:10:00Z</time>
      </trkpt>
      <trkpt lat="48.56132" lon="-2.15819">
        <ele>12</ele>
        <time>2014-09-14T15:10:19Z</time>
      </trkpt>
      <trkpt lat="48.5613" lon="-2.16028">
        <ele>12</ele>
        <time>2014-09-14T15:10:40Z</time>
      </trkpt>
      <trkpt lat="48.5613" lon="-2.163">
        <ele>12</ele>
        <time>2014-09-14T15:11:10Z</time>
      </trkpt>
      <trkpt lat="48.56135" lon="-2.16416">
        <ele>12</ele>
        <time>2014-09-14T15:11:28Z</time>
      </trkpt>
      <trkpt lat="48.56138" lon="-2.16419">
        <ele>12</ele>
        <time>2014-09-14T15:11:29Z</time>
      </trkpt>
      <trkpt lat="48.56142" lon="-2.16421">
        <ele>11</ele>
        <time>2014-09-14T15:11:30Z</time>
      </trkpt>
      <trkpt lat="48.56167" lon="-2.16416">
        <ele>11</ele>
        <time>2014-09-14T15:11:36Z</time>
      </trkpt>
      <trkpt lat="48.56225" lon="-2.16396">
        <ele>8</ele>
        <time>2014-09-14T15:11:49Z</time>
      </trkpt>
      <trkpt lat="48.56364" lon="-2.1643">
        <ele>9</ele>
        <time>2014-09-14T15:12:18Z</time>
      </trkpt>
      <trkpt lat="48.56517" lon="-2.16451">
        <ele>13</ele>
        <time>2014-09-14T15:12:48Z</time>
      </trkpt>
      <trkpt lat="48.56542" lon="-2.16456">
        <ele>11</ele>
        <time>2014-09-14T15:12:53Z</time>
      </trkpt>
      <trkpt lat="48.56612" lon="-2.16484">
        <ele>11</ele>
        <time>2014-09-14T15:13:07Z</time>
      </trkpt>
      <trkpt lat="48.56752" lon="-2.16605">
        <ele>10</ele>
        <time>2014-09-14T15:13:38Z</time>
      </trkpt>
      <trkpt lat="48.56884" lon="-2.16722">
        <ele>7</ele>
        <time>2014-09-14T15:14:08Z</time>
      </trkpt>
      <trkpt lat="48.56979" lon="-2.1685">
        <ele>9</ele>
        <time>2014-09-14T15:14:36Z</time>
      </trkpt>
      <trkpt lat="48.56983" lon="-2.16992">
        <ele>9</ele>
        <time>2014-09-14T15:14:57Z</time>
      </trkpt>
      <trkpt lat="48.56981" lon="-2.17189">
        <ele>7</ele>
        <time>2014-09-14T15:15:27Z</time>
      </trkpt>
      <trkpt lat="48.5698" lon="-2.17345">
        <ele>7</ele>
        <time>2014-09-14T15:15:57Z</time>
      </trkpt>
      <trkpt lat="48.5698" lon="-2.1735">
        <ele>8</ele>
        <time>2014-09-14T15:15:58Z</time>
      </trkpt>
      <trkpt lat="48.56987" lon="-2.1739">
        <ele>12</ele>
        <time>2014-09-14T15:16:06Z</time>
      </trkpt>
      <trkpt lat="48.57018" lon="-2.17425">
        <ele>12</ele>
        <time>2014-09-14T15:16:19Z</time>
      </trkpt>
      <trkpt lat="48.5705" lon="-2.17436">
        <ele>14</ele>
        <time>2014-09-14T15:16:29Z</time>
      </trkpt>
      <trkpt lat="48.57078" lon="-2.17446">
        <ele>18</ele>
        <time>2014-09-14T15:16:38Z</time>
      </trkpt>
      <trkpt lat="48.57178" lon="-2.17484">
        <ele>14</ele>
        <time>2014-09-14T15:17:15Z</time>
      </trkpt>
      <trkpt lat="48.5718" lon="-2.17486">
        <ele>15</ele>
        <time>2014-09-14T15:17:16Z</time>
      </trkpt>
      <trkpt lat="48.572" lon="-2.17497">
        <ele>17</ele>
        <time>2014-09-14T15:17:25Z</time>
      </trkpt>
      <trkpt lat="48.57207" lon="-2.175">
        <ele>19</ele>
        <time>2014-09-14T15:17:28Z</time>
      </trkpt>
      <trkpt lat="48.57219" lon="-2.17505">
        <ele>21</ele>
        <time>2014-09-14T15:17:32Z</time>
      </trkpt>
      <trkpt lat="48.57265" lon="-2.17528">
        <ele>23</ele>
        <time>2014-09-14T15:17:50Z</time>
      </trkpt>
      <trkpt lat="48.57303" lon="-2.17537">
        <ele>24</ele>
        <time>2014-09-14T15:18:05Z</time>
      </trkpt>
      <trkpt lat="48.57306" lon="-2.17538">
        <ele>26</ele>
        <time>2014-09-14T15:18:06Z</time>
      </trkpt>
      <trkpt lat="48.57317" lon="-2.17541">
        <ele>29</ele>
        <time>2014-09-14T15:18:10Z</time>
      </trkpt>
      <trkpt lat="48.57349" lon="-2.17544">
        <ele>29</ele>
        <time>2014-09-14T15:18:21Z</time>
      </trkpt>
      <trkpt lat="48.57359" lon="-2.1754">
        <ele>30</ele>
        <time>2014-09-14T15:18:25Z</time>
      </trkpt>
      <trkpt lat="48.57442" lon="-2.17546">
        <ele>24</ele>
        <time>2014-09-14T15:18:55Z</time>
      </trkpt>
      <trkpt lat="48.5752" lon="-2.17552">
        <ele>21</ele>
        <time>2014-09-14T15:19:22Z</time>
      </trkpt>
      <trkpt lat="48.57571" lon="-2.1764">
        <ele>24</ele>
        <time>2014-09-14T15:19:36Z</time>
      </trkpt>
      <trkpt lat="48.57583" lon="-2.17659">
        <ele>24</ele>
        <time>2014-09-14T15:19:38Z</time>
      </trkpt>
      <trkpt lat="48.57586" lon="-2.17683">
        <ele>24</ele>
        <time>2014-09-14T15:19:40Z</time>
      </trkpt>
      <trkpt lat="48.57594" lon="-2.17706">
        <ele>27</ele>
        <time>2014-09-14T15:19:42Z</time>
      </trkpt>
      <trkpt lat="48.57646" lon="-2.18092">
        <ele>18</ele>
        <time>2014-09-14T15:20:12Z</time>
      </trkpt>
      <trkpt lat="48.57679" lon="-2.18191">
        <ele>20</ele>
        <time>2014-09-14T15:20:22Z</time>
      </trkpt>
      <trkpt lat="48.57801" lon="-2.18406">
        <ele>28</ele>
        <time>2014-09-14T15:20:52Z</time>
      </trkpt>
      <trkpt lat="48.57809" lon="-2.18419">
        <ele>28</ele>
        <time>2014-09-14T15:20:55Z</time>
      </trkpt>
      <trkpt lat="48.57815" lon="-2.18422">
        <ele>29</ele>
        <time>2014-09-14T15:20:56Z</time>
      </trkpt>
      <trkpt lat="48.57885" lon="-2.18523">
        <ele>18</ele>
        <time>2014-09-14T15:21:30Z</time>
      </trkpt>
      <trkpt lat="48.57888" lon="-2.18526">
        <ele>18</ele>
        <time>2014-09-14T15:21:31Z</time>
      </trkpt>
      <trkpt lat="48.57966" lon="-2.18623">
        <ele>18</ele>
        <time>2014-09-14T15:22:01Z</time>
      </trkpt>
      <trkpt lat="48.58021" lon="-2.18658">
        <ele>19</ele>
        <time>2014-09-14T15:22:15Z</time>
      </trkpt>
      <trkpt lat="48.58029" lon="-2.18664">
        <ele>20</ele>
        <time>2014-09-14T15:22:17Z</time>
      </trkpt>
      <trkpt lat="48.58137" lon="-2.18756">
        <ele>21</ele>
        <time>2014-09-14T15:22:47Z</time>
      </trkpt>
      <trkpt lat="48.58198" lon="-2.18834">
        <ele>20</ele>
        <time>2014-09-14T15:23:04Z</time>
      </trkpt>
      <trkpt lat="48.58266" lon="-2.18923">
        <ele>20</ele>
        <time>2014-09-14T15:23:20Z</time>
      </trkpt>
      <trkpt lat="48.58301" lon="-2.18942">
        <ele>21</ele>
        <time>2014-09-14T15:23:26Z</time>
      </trkpt>
      <trkpt lat="48.58461" lon="-2.18996">
        <ele>21</ele>
        <time>2014-09-14T15:23:56Z</time>
      </trkpt>
      <trkpt lat="48.58483" lon="-2.19003">
        <ele>22</ele>
        <time>2014-09-14T15:24:00Z</time>
      </trkpt>
      <trkpt lat="48.58673" lon="-2.19094">
        <ele>17</ele>
        <time>2014-09-14T15:24:30Z</time>
      </trkpt>
      <trkpt lat="48.58729" lon="-2.19123">
        <ele>16</ele>
        <time>2014-09-14T15:24:37Z</time>
      </trkpt>
      <trkpt lat="48.58967" lon="-2.19158">
        <ele>13</ele>
        <time>2014-09-14T15:25:07Z</time>
      </trkpt>
      <trkpt lat="48.59128" lon="-2.19183">
        <ele>15</ele>
        <time>2014-09-14T15:25:37Z</time>
      </trkpt>
      <trkpt lat="48.59223" lon="-2.19142">
        <ele>10</ele>
        <time>2014-09-14T15:26:07Z</time>
      </trkpt>
      <trkpt lat="48.59233" lon="-2.19112">
        <ele>11</ele>
        <time>2014-09-14T15:26:13Z</time>
      </trkpt>
      <trkpt lat="48.59253" lon="-2.19056">
        <ele>14</ele>
        <time>2014-09-14T15:26:23Z</time>
      </trkpt>
      <trkpt lat="48.59257" lon="-2.19048">
        <ele>14</ele>
        <time>2014-09-14T15:26:25Z</time>
      </trkpt>
      <trkpt lat="48.59274" lon="-2.19008">
        <ele>13</ele>
        <time>2014-09-14T15:26:32Z</time>
      </trkpt>
      <trkpt lat="48.59328" lon="-2.1893">
        <ele>18</ele>
        <time>2014-09-14T15:26:51Z</time>
      </trkpt>
      <trkpt lat="48.59332" lon="-2.18928">
        <ele>21</ele>
        <time>2014-09-14T15:26:52Z</time>
      </trkpt>
      <trkpt lat="48.59422" lon="-2.18853">
        <ele>19</ele>
        <time>2014-09-14T15:27:22Z</time>
      </trkpt>
      <trkpt lat="48.59443" lon="-2.1883">
        <ele>19</ele>
        <time>2014-09-14T15:27:30Z</time>
      </trkpt>
      <trkpt lat="48.59512" lon="-2.1875">
        <ele>18</ele>
        <time>2014-09-14T15:28:01Z</time>
      </trkpt>
      <trkpt lat="48.5958" lon="-2.18705">
        <ele>20</ele>
        <time>2014-09-14T15:28:31Z</time>
      </trkpt>
      <trkpt lat="48.59655" lon="-2.18698">
        <ele>22</ele>
        <time>2014-09-14T15:28:51Z</time>
      </trkpt>
      <trkpt lat="48.59754" lon="-2.18692">
        <ele>25</ele>
        <time>2014-09-14T15:29:21Z</time>
      </trkpt>
      <trkpt lat="48.59782" lon="-2.1869">
        <ele>20</ele>
        <time>2014-09-14T15:29:42Z</time>
      </trkpt>
      <trkpt lat="48.59783" lon="-2.18688">
        <ele>21</ele>
        <time>2014-09-14T15:29:47Z</time>
      </trkpt>
      <trkpt lat="48.59792" lon="-2.18684">
        <ele>19</ele>
        <time>2014-09-14T15:30:59Z</time>
      </trkpt>
      <trkpt lat="48.59835" lon="-2.18676">
        <ele>14</ele>
        <time>2014-09-14T15:31:38Z</time>
      </trkpt>
      <trkpt lat="48.59845" lon="-2.18677">
        <ele>17</ele>
        <time>2014-09-14T15:31:46Z</time>
      </trkpt>
      <trkpt lat="48.59848" lon="-2.18678">
        <ele>20</ele>
        <time>2014-09-14T15:31:48Z</time>
      </trkpt>
      <trkpt lat="48.59866" lon="-2.18678">
        <ele>25</ele>
        <time>2014-09-14T15:32:00Z</time>
      </trkpt>
      <trkpt lat="48.59877" lon="-2.18682">
        <ele>27</ele>
        <time>2014-09-14T15:32:07Z</time>
      </trkpt>
      <trkpt lat="48.59899" lon="-2.18691">
        <ele>25</ele>
        <time>2014-09-14T15:32:25Z</time>
      </trkpt>
      <trkpt lat="48.5995" lon="-2.187">
        <ele>22</ele>
        <time>2014-09-14T15:32:56Z</time>
      </trkpt>
      <trkpt lat="48.59955" lon="-2.18703">
        <ele>23</ele>
        <time>2014-09-14T15:33:01Z</time>
      </trkpt>
      <trkpt lat="48.59953" lon="-2.18705">
        <ele>26</ele>
        <time>2014-09-14T15:34:16Z</time>
      </trkpt>
      <trkpt lat="48.59953" lon="-2.18707">
        <ele>29</ele>
        <time>2014-09-14T15:34:37Z</time>
      </trkpt>
      <trkpt lat="48.59953" lon="-2.18705">
        <ele>31</ele>
        <time>2014-09-14T15:35:49Z</time>
      </trkpt>
      <trkpt lat="48.59954" lon="-2.18703">
        <ele>31</ele>
        <time>2014-09-14T15:37:13Z</time>
      </trkpt>
      <trkpt lat="48.59955" lon="-2.18702">
        <ele>25</ele>
        <time>2014-09-14T15:44:18Z</time>
      </trkpt>
      <trkpt lat="48.59977" lon="-2.18708">
        <ele>27</ele>
        <time>2014-09-14T15:44:29Z</time>
      </trkpt>
      <trkpt lat="48.60016" lon="-2.18716">
        <ele>31</ele>
        <time>2014-09-14T15:44:42Z</time>
      </trkpt>
      <trkpt lat="48.60043" lon="-2.18717">
        <ele>34</ele>
        <time>2014-09-14T15:44:52Z</time>
      </trkpt>
      <trkpt lat="48.60104" lon="-2.18737">
        <ele>32</ele>
        <time>2014-09-14T15:45:22Z</time>
      </trkpt>
      <trkpt lat="48.60153" lon="-2.18747">
        <ele>31</ele>
        <time>2014-09-14T15:45:42Z</time>
      </trkpt>
      <trkpt lat="48.60259" lon="-2.18775">
        <ele>34</ele>
        <time>2014-09-14T15:46:12Z</time>
      </trkpt>
      <trkpt lat="48.60407" lon="-2.18857">
        <ele>34</ele>
        <time>2014-09-14T15:46:50Z</time>
      </trkpt>
      <trkpt lat="48.6056" lon="-2.1892">
        <ele>21</ele>
        <time>2014-09-14T15:47:30Z</time>
      </trkpt>
      <trkpt lat="48.60582" lon="-2.18923">
        <ele>20</ele>
        <time>2014-09-14T15:47:40Z</time>
      </trkpt>
      <trkpt lat="48.606" lon="-2.18901">
        <ele>18</ele>
        <time>2014-09-14T15:47:50Z</time>
      </trkpt>
      <trkpt lat="48.60605" lon="-2.18884">
        <ele>16</ele>
        <time>2014-09-14T15:48:00Z</time>
      </trkpt>
      <trkpt lat="48.6064" lon="-2.1885">
        <ele>11</ele>
        <time>2014-09-14T15:48:19Z</time>
      </trkpt>
      <trkpt lat="48.60643" lon="-2.18848">
        <ele>11</ele>
        <time>2014-09-14T15:48:23Z</time>
      </trkpt>
      <trkpt lat="48.60646" lon="-2.18848">
        <ele>13</ele>
        <time>2014-09-14T15:48:31Z</time>
      </trkpt>
      <trkpt lat="48.60649" lon="-2.18847">
        <ele>13</ele>
        <time>2014-09-14T15:48:35Z</time>
      </trkpt>
      <trkpt lat="48.60652" lon="-2.18846">
        <ele>15</ele>
        <time>2014-09-14T15:48:38Z</time>
      </trkpt>
      <trkpt lat="48.60653" lon="-2.18848">
        <ele>15</ele>
        <time>2014-09-14T15:48:40Z</time>
      </trkpt>
    </trkseg>
  </trk>
  <trk>
    <name><![CDATA[14 sept. 2014]]></name>
    <cmt><![CDATA[16:33:12]]></cmt>
    <desc><![CDATA[comment ...]]></desc>
    <trkseg>
      <trkpt lat="48.60081" lon="-2.18724">
        <ele>32</ele>
        <time>2014-09-14T16:33:12Z</time>
      </trkpt>
      <trkpt lat="48.60081" lon="-2.18724">
        <ele>32</ele>
        <time>2014-09-14T16:33:13Z</time>
      </trkpt>
      <trkpt lat="48.60083" lon="-2.18724">
        <ele>34</ele>
        <time>2014-09-14T16:33:18Z</time>
      </trkpt>
      <trkpt lat="48.60086" lon="-2.18725">
        <ele>37</ele>
        <time>2014-09-14T16:34:31Z</time>
      </trkpt>
      <trkpt lat="48.60088" lon="-2.18727">
        <ele>41</ele>
        <time>2014-09-14T16:36:15Z</time>
      </trkpt>
      <trkpt lat="48.60088" lon="-2.18733">
        <ele>36</ele>
        <time>2014-09-14T16:36:28Z</time>
      </trkpt>
      <trkpt lat="48.60069" lon="-2.18732">
        <ele>36</ele>
        <time>2014-09-14T16:36:47Z</time>
      </trkpt>
      <trkpt lat="48.60004" lon="-2.18722">
        <ele>36</ele>
        <time>2014-09-14T16:37:10Z</time>
      </trkpt>
      <trkpt lat="48.5995" lon="-2.18707">
        <ele>29</ele>
        <time>2014-09-14T16:37:31Z</time>
      </trkpt>
      <trkpt lat="48.59951" lon="-2.18703">
        <ele>23</ele>
        <time>2014-09-14T16:38:48Z</time>
      </trkpt>
      <trkpt lat="48.59856" lon="-2.18687">
        <ele>21</ele>
        <time>2014-09-14T16:39:27Z</time>
      </trkpt>
      <trkpt lat="48.59795" lon="-2.18691">
        <ele>19</ele>
        <time>2014-09-14T16:39:37Z</time>
      </trkpt>
      <trkpt lat="48.59581" lon="-2.18712">
        <ele>19</ele>
        <time>2014-09-14T16:40:07Z</time>
      </trkpt>
      <trkpt lat="48.59531" lon="-2.18745">
        <ele>18</ele>
        <time>2014-09-14T16:40:17Z</time>
      </trkpt>
      <trkpt lat="48.59427" lon="-2.18847">
        <ele>15</ele>
        <time>2014-09-14T16:40:36Z</time>
      </trkpt>
      <trkpt lat="48.59291" lon="-2.18976">
        <ele>13</ele>
        <time>2014-09-14T16:41:06Z</time>
      </trkpt>
      <trkpt lat="48.5922" lon="-2.1915">
        <ele>11</ele>
        <time>2014-09-14T16:41:34Z</time>
      </trkpt>
      <trkpt lat="48.59194" lon="-2.19177">
        <ele>12</ele>
        <time>2014-09-14T16:41:41Z</time>
      </trkpt>
      <trkpt lat="48.59127" lon="-2.19188">
        <ele>6</ele>
        <time>2014-09-14T16:41:58Z</time>
      </trkpt>
      <trkpt lat="48.59055" lon="-2.19179">
        <ele>5</ele>
        <time>2014-09-14T16:42:13Z</time>
      </trkpt>
      <trkpt lat="48.58902" lon="-2.19161">
        <ele>7</ele>
        <time>2014-09-14T16:42:43Z</time>
      </trkpt>
      <trkpt lat="48.58811" lon="-2.19177">
        <ele>9</ele>
        <time>2014-09-14T16:43:02Z</time>
      </trkpt>
      <trkpt lat="48.58809" lon="-2.19172">
        <ele>9</ele>
        <time>2014-09-14T16:43:03Z</time>
      </trkpt>
      <trkpt lat="48.58805" lon="-2.19171">
        <ele>8</ele>
        <time>2014-09-14T16:43:04Z</time>
      </trkpt>
      <trkpt lat="48.58708" lon="-2.19121">
        <ele>9</ele>
        <time>2014-09-14T16:43:35Z</time>
      </trkpt>
      <trkpt lat="48.58705" lon="-2.1912">
        <ele>10</ele>
        <time>2014-09-14T16:43:36Z</time>
      </trkpt>
      <trkpt lat="48.58629" lon="-2.19083">
        <ele>10</ele>
        <time>2014-09-14T16:44:06Z</time>
      </trkpt>
      <trkpt lat="48.58626" lon="-2.19082">
        <ele>10</ele>
        <time>2014-09-14T16:44:07Z</time>
      </trkpt>
      <trkpt lat="48.58613" lon="-2.19073">
        <ele>11</ele>
        <time>2014-09-14T16:44:14Z</time>
      </trkpt>
      <trkpt lat="48.58578" lon="-2.19058">
        <ele>11</ele>
        <time>2014-09-14T16:44:30Z</time>
      </trkpt>
      <trkpt lat="48.58565" lon="-2.1905">
        <ele>13</ele>
        <time>2014-09-14T16:44:37Z</time>
      </trkpt>
      <trkpt lat="48.58541" lon="-2.19037">
        <ele>17</ele>
        <time>2014-09-14T16:44:48Z</time>
      </trkpt>
      <trkpt lat="48.58535" lon="-2.19035">
        <ele>19</ele>
        <time>2014-09-14T16:44:50Z</time>
      </trkpt>
      <trkpt lat="48.58468" lon="-2.19007">
        <ele>23</ele>
        <time>2014-09-14T16:45:20Z</time>
      </trkpt>
      <trkpt lat="48.58386" lon="-2.18978">
        <ele>21</ele>
        <time>2014-09-14T16:45:50Z</time>
      </trkpt>
      <trkpt lat="48.58267" lon="-2.18929">
        <ele>19</ele>
        <time>2014-09-14T16:46:20Z</time>
      </trkpt>
      <trkpt lat="48.58255" lon="-2.18917">
        <ele>19</ele>
        <time>2014-09-14T16:46:23Z</time>
      </trkpt>
      <trkpt lat="48.58195" lon="-2.1883">
        <ele>22</ele>
        <time>2014-09-14T16:46:41Z</time>
      </trkpt>
      <trkpt lat="48.58084" lon="-2.18709">
        <ele>19</ele>
        <time>2014-09-14T16:47:11Z</time>
      </trkpt>
      <trkpt lat="48.57941" lon="-2.18599">
        <ele>16</ele>
        <time>2014-09-14T16:47:41Z</time>
      </trkpt>
      <trkpt lat="48.57803" lon="-2.18426">
        <ele>11</ele>
        <time>2014-09-14T16:48:11Z</time>
      </trkpt>
      <trkpt lat="48.57707" lon="-2.18275">
        <ele>9</ele>
        <time>2014-09-14T16:48:29Z</time>
      </trkpt>
      <trkpt lat="48.57629" lon="-2.18045">
        <ele>8</ele>
        <time>2014-09-14T16:49:00Z</time>
      </trkpt>
      <trkpt lat="48.57625" lon="-2.17978">
        <ele>8</ele>
        <time>2014-09-14T16:49:10Z</time>
      </trkpt>
      <trkpt lat="48.57625" lon="-2.1795">
        <ele>8</ele>
        <time>2014-09-14T16:49:14Z</time>
      </trkpt>
      <trkpt lat="48.57615" lon="-2.17811">
        <ele>13</ele>
        <time>2014-09-14T16:49:35Z</time>
      </trkpt>
      <trkpt lat="48.57597" lon="-2.17734">
        <ele>20</ele>
        <time>2014-09-14T16:49:54Z</time>
      </trkpt>
      <trkpt lat="48.57576" lon="-2.1766">
        <ele>22</ele>
        <time>2014-09-14T16:50:23Z</time>
      </trkpt>
      <trkpt lat="48.57535" lon="-2.17617">
        <ele>25</ele>
        <time>2014-09-14T16:50:51Z</time>
      </trkpt>
      <trkpt lat="48.57496" lon="-2.17592">
        <ele>24</ele>
        <time>2014-09-14T16:51:11Z</time>
      </trkpt>
      <trkpt lat="48.57498" lon="-2.17565">
        <ele>28</ele>
        <time>2014-09-14T16:51:19Z</time>
      </trkpt>
      <trkpt lat="48.57517" lon="-2.17548">
        <ele>27</ele>
        <time>2014-09-14T16:51:26Z</time>
      </trkpt>
      <trkpt lat="48.57586" lon="-2.17473">
        <ele>21</ele>
        <time>2014-09-14T16:51:50Z</time>
      </trkpt>
      <trkpt lat="48.57625" lon="-2.17278">
        <ele>19</ele>
        <time>2014-09-14T16:52:20Z</time>
      </trkpt>
      <trkpt lat="48.57677" lon="-2.16919">
        <ele>14</ele>
        <time>2014-09-14T16:52:52Z</time>
      </trkpt>
      <trkpt lat="48.57694" lon="-2.16745">
        <ele>13</ele>
        <time>2014-09-14T16:53:08Z</time>
      </trkpt>
      <trkpt lat="48.5768" lon="-2.16463">
        <ele>14</ele>
        <time>2014-09-14T16:53:39Z</time>
      </trkpt>
      <trkpt lat="48.57668" lon="-2.16247">
        <ele>13</ele>
        <time>2014-09-14T16:54:09Z</time>
      </trkpt>
      <trkpt lat="48.57643" lon="-2.15977">
        <ele>10</ele>
        <time>2014-09-14T16:54:48Z</time>
      </trkpt>
      <trkpt lat="48.5762" lon="-2.15775">
        <ele>8</ele>
        <time>2014-09-14T16:55:18Z</time>
      </trkpt>
      <trkpt lat="48.57614" lon="-2.15715">
        <ele>8</ele>
        <time>2014-09-14T16:55:27Z</time>
      </trkpt>
      <trkpt lat="48.57613" lon="-2.15702">
        <ele>9</ele>
        <time>2014-09-14T16:55:29Z</time>
      </trkpt>
      <trkpt lat="48.57603" lon="-2.1563">
        <ele>11</ele>
        <time>2014-09-14T16:55:40Z</time>
      </trkpt>
      <trkpt lat="48.57599" lon="-2.15448">
        <ele>19</ele>
        <time>2014-09-14T16:56:10Z</time>
      </trkpt>
      <trkpt lat="48.57612" lon="-2.15288">
        <ele>18</ele>
        <time>2014-09-14T16:56:40Z</time>
      </trkpt>
      <trkpt lat="48.57628" lon="-2.15099">
        <ele>23</ele>
        <time>2014-09-14T16:57:18Z</time>
      </trkpt>
      <trkpt lat="48.57629" lon="-2.1509">
        <ele>24</ele>
        <time>2014-09-14T16:57:20Z</time>
      </trkpt>
      <trkpt lat="48.57634" lon="-2.15041">
        <ele>26</ele>
        <time>2014-09-14T16:57:30Z</time>
      </trkpt>
      <trkpt lat="48.57657" lon="-2.14905">
        <ele>29</ele>
        <time>2014-09-14T16:58:00Z</time>
      </trkpt>
      <trkpt lat="48.57655" lon="-2.14898">
        <ele>29</ele>
        <time>2014-09-14T16:58:02Z</time>
      </trkpt>
      <trkpt lat="48.57653" lon="-2.14896">
        <ele>30</ele>
        <time>2014-09-14T16:58:03Z</time>
      </trkpt>
      <trkpt lat="48.57649" lon="-2.14891">
        <ele>28</ele>
        <time>2014-09-14T16:58:05Z</time>
      </trkpt>
      <trkpt lat="48.57648" lon="-2.14887">
        <ele>29</ele>
        <time>2014-09-14T16:58:06Z</time>
      </trkpt>
      <trkpt lat="48.57647" lon="-2.14877">
        <ele>28</ele>
        <time>2014-09-14T16:58:08Z</time>
      </trkpt>
      <trkpt lat="48.5767" lon="-2.14852">
        <ele>28</ele>
        <time>2014-09-14T16:58:17Z</time>
      </trkpt>
      <trkpt lat="48.57698" lon="-2.14847">
        <ele>27</ele>
        <time>2014-09-14T16:58:28Z</time>
      </trkpt>
      <trkpt lat="48.57752" lon="-2.1476">
        <ele>23</ele>
        <time>2014-09-14T16:58:58Z</time>
      </trkpt>
      <trkpt lat="48.57786" lon="-2.14669">
        <ele>24</ele>
        <time>2014-09-14T16:59:28Z</time>
      </trkpt>
      <trkpt lat="48.5779" lon="-2.14626">
        <ele>23</ele>
        <time>2014-09-14T16:59:40Z</time>
      </trkpt>
      <trkpt lat="48.57791" lon="-2.14623">
        <ele>25</ele>
        <time>2014-09-14T17:00:08Z</time>
      </trkpt>
      <trkpt lat="48.57794" lon="-2.14508">
        <ele>25</ele>
        <time>2014-09-14T17:00:36Z</time>
      </trkpt>
      <trkpt lat="48.57781" lon="-2.14468">
        <ele>25</ele>
        <time>2014-09-14T17:00:48Z</time>
      </trkpt>
      <trkpt lat="48.57783" lon="-2.14465">
        <ele>24</ele>
        <time>2014-09-14T17:00:49Z</time>
      </trkpt>
      <trkpt lat="48.57788" lon="-2.14462">
        <ele>25</ele>
        <time>2014-09-14T17:00:52Z</time>
      </trkpt>
      <trkpt lat="48.57791" lon="-2.14461">
        <ele>26</ele>
        <time>2014-09-14T17:00:54Z</time>
      </trkpt>
      <trkpt lat="48.57794" lon="-2.14457">
        <ele>27</ele>
        <time>2014-09-14T17:00:56Z</time>
      </trkpt>
      <trkpt lat="48.57798" lon="-2.14422">
        <ele>31</ele>
        <time>2014-09-14T17:01:05Z</time>
      </trkpt>
      <trkpt lat="48.57803" lon="-2.1426">
        <ele>26</ele>
        <time>2014-09-14T17:01:41Z</time>
      </trkpt>
      <trkpt lat="48.5781" lon="-2.14173">
        <ele>26</ele>
        <time>2014-09-14T17:02:00Z</time>
      </trkpt>
      <trkpt lat="48.57815" lon="-2.14126">
        <ele>29</ele>
        <time>2014-09-14T17:02:12Z</time>
      </trkpt>
      <trkpt lat="48.57832" lon="-2.14018">
        <ele>32</ele>
        <time>2014-09-14T17:02:39Z</time>
      </trkpt>
      <trkpt lat="48.57835" lon="-2.13981">
        <ele>32</ele>
        <time>2014-09-14T17:02:49Z</time>
      </trkpt>
      <trkpt lat="48.57853" lon="-2.13961">
        <ele>33</ele>
        <time>2014-09-14T17:02:58Z</time>
      </trkpt>
      <trkpt lat="48.57863" lon="-2.13939">
        <ele>33</ele>
        <time>2014-09-14T17:03:05Z</time>
      </trkpt>
      <trkpt lat="48.57888" lon="-2.13798">
        <ele>30</ele>
        <time>2014-09-14T17:03:24Z</time>
      </trkpt>
      <trkpt lat="48.57879" lon="-2.13778">
        <ele>28</ele>
        <time>2014-09-14T17:03:29Z</time>
      </trkpt>
      <trkpt lat="48.57794" lon="-2.13733">
        <ele>23</ele>
        <time>2014-09-14T17:03:48Z</time>
      </trkpt>
      <trkpt lat="48.57741" lon="-2.13737">
        <ele>15</ele>
        <time>2014-09-14T17:04:07Z</time>
      </trkpt>
      <trkpt lat="48.57725" lon="-2.13722">
        <ele>20</ele>
        <time>2014-09-14T17:04:16Z</time>
      </trkpt>
      <trkpt lat="48.57721" lon="-2.13719">
        <ele>22</ele>
        <time>2014-09-14T17:04:18Z</time>
      </trkpt>
      <trkpt lat="48.57691" lon="-2.13718">
        <ele>25</ele>
        <time>2014-09-14T17:04:27Z</time>
      </trkpt>
      <trkpt lat="48.57586" lon="-2.13706">
        <ele>17</ele>
        <time>2014-09-14T17:04:58Z</time>
      </trkpt>
      <trkpt lat="48.57495" lon="-2.13638">
        <ele>17</ele>
        <time>2014-09-14T17:05:28Z</time>
      </trkpt>
      <trkpt lat="48.57449" lon="-2.13591">
        <ele>15</ele>
        <time>2014-09-14T17:05:44Z</time>
      </trkpt>
      <trkpt lat="48.57334" lon="-2.1352">
        <ele>15</ele>
        <time>2014-09-14T17:06:14Z</time>
      </trkpt>
      <trkpt lat="48.57324" lon="-2.13515">
        <ele>15</ele>
        <time>2014-09-14T17:06:17Z</time>
      </trkpt>
      <trkpt lat="48.57323" lon="-2.13513">
        <ele>15</ele>
        <time>2014-09-14T17:06:18Z</time>
      </trkpt>
      <trkpt lat="48.57322" lon="-2.13509">
        <ele>15</ele>
        <time>2014-09-14T17:06:19Z</time>
      </trkpt>
      <trkpt lat="48.57323" lon="-2.13501">
        <ele>16</ele>
        <time>2014-09-14T17:06:21Z</time>
      </trkpt>
      <trkpt lat="48.57331" lon="-2.13484">
        <ele>16</ele>
        <time>2014-09-14T17:06:25Z</time>
      </trkpt>
      <trkpt lat="48.5735" lon="-2.1346">
        <ele>16</ele>
        <time>2014-09-14T17:06:33Z</time>
      </trkpt>
      <trkpt lat="48.57394" lon="-2.13373">
        <ele>17</ele>
        <time>2014-09-14T17:06:55Z</time>
      </trkpt>
      <trkpt lat="48.57397" lon="-2.13366">
        <ele>21</ele>
        <time>2014-09-14T17:06:57Z</time>
      </trkpt>
      <trkpt lat="48.57426" lon="-2.13297">
        <ele>20</ele>
        <time>2014-09-14T17:07:22Z</time>
      </trkpt>
      <trkpt lat="48.57431" lon="-2.13292">
        <ele>23</ele>
        <time>2014-09-14T17:07:25Z</time>
      </trkpt>
      <trkpt lat="48.57448" lon="-2.1322">
        <ele>24</ele>
        <time>2014-09-14T17:07:57Z</time>
      </trkpt>
      <trkpt lat="48.5745" lon="-2.13211">
        <ele>25</ele>
        <time>2014-09-14T17:08:00Z</time>
      </trkpt>
      <trkpt lat="48.57459" lon="-2.1318">
        <ele>29</ele>
        <time>2014-09-14T17:08:11Z</time>
      </trkpt>
      <trkpt lat="48.57493" lon="-2.13075">
        <ele>24</ele>
        <time>2014-09-14T17:08:37Z</time>
      </trkpt>
      <trkpt lat="48.57497" lon="-2.12996">
        <ele>18</ele>
        <time>2014-09-14T17:08:56Z</time>
      </trkpt>
      <trkpt lat="48.5749" lon="-2.1295">
        <ele>20</ele>
        <time>2014-09-14T17:09:12Z</time>
      </trkpt>
      <trkpt lat="48.57482" lon="-2.12878">
        <ele>20</ele>
        <time>2014-09-14T17:09:36Z</time>
      </trkpt>
      <trkpt lat="48.57477" lon="-2.12855">
        <ele>22</ele>
        <time>2014-09-14T17:09:44Z</time>
      </trkpt>
      <trkpt lat="48.57476" lon="-2.12847">
        <ele>28</ele>
        <time>2014-09-14T17:09:47Z</time>
      </trkpt>
      <trkpt lat="48.57458" lon="-2.12769">
        <ele>27</ele>
        <time>2014-09-14T17:10:19Z</time>
      </trkpt>
      <trkpt lat="48.57456" lon="-2.1276">
        <ele>27</ele>
        <time>2014-09-14T17:10:22Z</time>
      </trkpt>
      <trkpt lat="48.57458" lon="-2.12744">
        <ele>25</ele>
        <time>2014-09-14T17:10:28Z</time>
      </trkpt>
      <trkpt lat="48.57471" lon="-2.12704">
        <ele>27</ele>
        <time>2014-09-14T17:10:45Z</time>
      </trkpt>
      <trkpt lat="48.5748" lon="-2.12672">
        <ele>27</ele>
        <time>2014-09-14T17:10:57Z</time>
      </trkpt>
      <trkpt lat="48.57484" lon="-2.12662">
        <ele>30</ele>
        <time>2014-09-14T17:11:01Z</time>
      </trkpt>
      <trkpt lat="48.57484" lon="-2.12654">
        <ele>30</ele>
        <time>2014-09-14T17:11:04Z</time>
      </trkpt>
      <trkpt lat="48.57481" lon="-2.12648">
        <ele>32</ele>
        <time>2014-09-14T17:11:06Z</time>
      </trkpt>
      <trkpt lat="48.57477" lon="-2.12643">
        <ele>33</ele>
        <time>2014-09-14T17:11:09Z</time>
      </trkpt>
      <trkpt lat="48.57438" lon="-2.12614">
        <ele>35</ele>
        <time>2014-09-14T17:11:28Z</time>
      </trkpt>
      <trkpt lat="48.57403" lon="-2.12593">
        <ele>37</ele>
        <time>2014-09-14T17:11:43Z</time>
      </trkpt>
      <trkpt lat="48.57388" lon="-2.12587">
        <ele>38</ele>
        <time>2014-09-14T17:11:49Z</time>
      </trkpt>
      <trkpt lat="48.57354" lon="-2.12567">
        <ele>41</ele>
        <time>2014-09-14T17:12:03Z</time>
      </trkpt>
      <trkpt lat="48.57352" lon="-2.12564">
        <ele>43</ele>
        <time>2014-09-14T17:12:04Z</time>
      </trkpt>
      <trkpt lat="48.57351" lon="-2.12561">
        <ele>45</ele>
        <time>2014-09-14T17:12:05Z</time>
      </trkpt>
      <trkpt lat="48.57352" lon="-2.12548">
        <ele>46</ele>
        <time>2014-09-14T17:12:08Z</time>
      </trkpt>
      <trkpt lat="48.57379" lon="-2.12438">
        <ele>41</ele>
        <time>2014-09-14T17:12:38Z</time>
      </trkpt>
      <trkpt lat="48.57384" lon="-2.12427">
        <ele>40</ele>
        <time>2014-09-14T17:12:42Z</time>
      </trkpt>
      <trkpt lat="48.57385" lon="-2.12422">
        <ele>43</ele>
        <time>2014-09-14T17:12:53Z</time>
      </trkpt>
      <trkpt lat="48.57384" lon="-2.1242">
        <ele>43</ele>
        <time>2014-09-14T17:16:03Z</time>
      </trkpt>
      <trkpt lat="48.57384" lon="-2.12417">
        <ele>42</ele>
        <time>2014-09-14T17:16:05Z</time>
      </trkpt>
      <trkpt lat="48.57383" lon="-2.12414">
        <ele>42</ele>
        <time>2014-09-14T17:16:06Z</time>
      </trkpt>
      <trkpt lat="48.57382" lon="-2.12411">
        <ele>41</ele>
        <time>2014-09-14T17:16:07Z</time>
      </trkpt>
      <trkpt lat="48.57381" lon="-2.12409">
        <ele>40</ele>
        <time>2014-09-14T17:16:08Z</time>
      </trkpt>
      <trkpt lat="48.57379" lon="-2.12407">
        <ele>43</ele>
        <time>2014-09-14T17:16:09Z</time>
      </trkpt>
      <trkpt lat="48.57377" lon="-2.12405">
        <ele>42</ele>
        <time>2014-09-14T17:16:10Z</time>
      </trkpt>
      <trkpt lat="48.57328" lon="-2.12366">
        <ele>37</ele>
        <time>2014-09-14T17:16:24Z</time>
      </trkpt>
      <trkpt lat="48.57278" lon="-2.12269">
        <ele>31</ele>
        <time>2014-09-14T17:16:44Z</time>
      </trkpt>
      <trkpt lat="48.57176" lon="-2.12166">
        <ele>33</ele>
        <time>2014-09-14T17:17:14Z</time>
      </trkpt>
      <trkpt lat="48.57153" lon="-2.12138">
        <ele>35</ele>
        <time>2014-09-14T17:17:23Z</time>
      </trkpt>
      <trkpt lat="48.57112" lon="-2.12058">
        <ele>38</ele>
        <time>2014-09-14T17:17:43Z</time>
      </trkpt>
      <trkpt lat="48.57091" lon="-2.11979">
        <ele>36</ele>
        <time>2014-09-14T17:18:03Z</time>
      </trkpt>
      <trkpt lat="48.57094" lon="-2.11971">
        <ele>38</ele>
        <time>2014-09-14T17:18:11Z</time>
      </trkpt>
      <trkpt lat="48.57096" lon="-2.1197">
        <ele>38</ele>
        <time>2014-09-14T17:18:45Z</time>
      </trkpt>
      <trkpt lat="48.57098" lon="-2.11963">
        <ele>39</ele>
        <time>2014-09-14T17:18:48Z</time>
      </trkpt>
      <trkpt lat="48.57095" lon="-2.1194">
        <ele>41</ele>
        <time>2014-09-14T17:18:54Z</time>
      </trkpt>
      <trkpt lat="48.57082" lon="-2.11929">
        <ele>44</ele>
        <time>2014-09-14T17:18:58Z</time>
      </trkpt>
      <trkpt lat="48.56923" lon="-2.11846">
        <ele>39</ele>
        <time>2014-09-14T17:19:28Z</time>
      </trkpt>
      <trkpt lat="48.56874" lon="-2.11806">
        <ele>39</ele>
        <time>2014-09-14T17:19:38Z</time>
      </trkpt>
      <trkpt lat="48.56834" lon="-2.11772">
        <ele>42</ele>
        <time>2014-09-14T17:19:50Z</time>
      </trkpt>
      <trkpt lat="48.56766" lon="-2.11741">
        <ele>49</ele>
        <time>2014-09-14T17:20:15Z</time>
      </trkpt>
      <trkpt lat="48.56742" lon="-2.1173">
        <ele>50</ele>
        <time>2014-09-14T17:20:25Z</time>
      </trkpt>
      <trkpt lat="48.56663" lon="-2.1172">
        <ele>53</ele>
        <time>2014-09-14T17:20:55Z</time>
      </trkpt>
      <trkpt lat="48.5666" lon="-2.1172">
        <ele>54</ele>
        <time>2014-09-14T17:20:56Z</time>
      </trkpt>
      <trkpt lat="48.56556" lon="-2.11675">
        <ele>50</ele>
        <time>2014-09-14T17:21:26Z</time>
      </trkpt>
      <trkpt lat="48.56528" lon="-2.11639">
        <ele>50</ele>
        <time>2014-09-14T17:21:35Z</time>
      </trkpt>
      <trkpt lat="48.56502" lon="-2.11551">
        <ele>47</ele>
        <time>2014-09-14T17:21:51Z</time>
      </trkpt>
      <trkpt lat="48.56469" lon="-2.11469">
        <ele>47</ele>
        <time>2014-09-14T17:22:05Z</time>
      </trkpt>
      <trkpt lat="48.56357" lon="-2.11357">
        <ele>40</ele>
        <time>2014-09-14T17:22:35Z</time>
      </trkpt>
      <trkpt lat="48.56268" lon="-2.11265">
        <ele>41</ele>
        <time>2014-09-14T17:22:59Z</time>
      </trkpt>
      <trkpt lat="48.56223" lon="-2.1121">
        <ele>45</ele>
        <time>2014-09-14T17:23:16Z</time>
      </trkpt>
      <trkpt lat="48.56146" lon="-2.11151">
        <ele>49</ele>
        <time>2014-09-14T17:23:46Z</time>
      </trkpt>
      <trkpt lat="48.56111" lon="-2.11129">
        <ele>58</ele>
        <time>2014-09-14T17:23:56Z</time>
      </trkpt>
      <trkpt lat="48.55982" lon="-2.11072">
        <ele>48</ele>
        <time>2014-09-14T17:24:24Z</time>
      </trkpt>
      <trkpt lat="48.5598" lon="-2.1106">
        <ele>48</ele>
        <time>2014-09-14T17:24:26Z</time>
      </trkpt>
      <trkpt lat="48.55979" lon="-2.11044">
        <ele>50</ele>
        <time>2014-09-14T17:24:29Z</time>
      </trkpt>
      <trkpt lat="48.56032" lon="-2.10881">
        <ele>48</ele>
        <time>2014-09-14T17:24:59Z</time>
      </trkpt>
      <trkpt lat="48.56035" lon="-2.10876">
        <ele>48</ele>
        <time>2014-09-14T17:25:01Z</time>
      </trkpt>
      <trkpt lat="48.56056" lon="-2.10815">
        <ele>49</ele>
        <time>2014-09-14T17:25:15Z</time>
      </trkpt>
      <trkpt lat="48.5606" lon="-2.10802">
        <ele>53</ele>
        <time>2014-09-14T17:25:18Z</time>
      </trkpt>
      <trkpt lat="48.56061" lon="-2.10805">
        <ele>54</ele>
        <time>2014-09-14T17:25:57Z</time>
      </trkpt>
      <trkpt lat="48.56052" lon="-2.10825">
        <ele>54</ele>
        <time>2014-09-14T17:26:04Z</time>
      </trkpt>
      <trkpt lat="48.56048" lon="-2.10827">
        <ele>53</ele>
        <time>2014-09-14T17:26:05Z</time>
      </trkpt>
      <trkpt lat="48.56043" lon="-2.10827">
        <ele>53</ele>
        <time>2014-09-14T17:26:06Z</time>
      </trkpt>
      <trkpt lat="48.56038" lon="-2.1082">
        <ele>54</ele>
        <time>2014-09-14T17:26:07Z</time>
      </trkpt>
      <trkpt lat="48.5593" lon="-2.10703">
        <ele>48</ele>
        <time>2014-09-14T17:26:37Z</time>
      </trkpt>
      <trkpt lat="48.55927" lon="-2.10699">
        <ele>48</ele>
        <time>2014-09-14T17:26:38Z</time>
      </trkpt>
      <trkpt lat="48.55925" lon="-2.10694">
        <ele>48</ele>
        <time>2014-09-14T17:26:39Z</time>
      </trkpt>
      <trkpt lat="48.55868" lon="-2.10641">
        <ele>46</ele>
        <time>2014-09-14T17:26:53Z</time>
      </trkpt>
      <trkpt lat="48.55747" lon="-2.10519">
        <ele>44</ele>
        <time>2014-09-14T17:27:23Z</time>
      </trkpt>
      <trkpt lat="48.55726" lon="-2.10509">
        <ele>43</ele>
        <time>2014-09-14T17:27:28Z</time>
      </trkpt>
      <trkpt lat="48.5563" lon="-2.10471">
        <ele>47</ele>
        <time>2014-09-14T17:27:47Z</time>
      </trkpt>
      <trkpt lat="48.55556" lon="-2.10412">
        <ele>53</ele>
        <time>2014-09-14T17:28:17Z</time>
      </trkpt>
      <trkpt lat="48.55513" lon="-2.10379">
        <ele>51</ele>
        <time>2014-09-14T17:28:47Z</time>
      </trkpt>
      <trkpt lat="48.55501" lon="-2.10367">
        <ele>53</ele>
        <time>2014-09-14T17:28:57Z</time>
      </trkpt>
      <trkpt lat="48.55499" lon="-2.10366">
        <ele>55</ele>
        <time>2014-09-14T17:30:10Z</time>
      </trkpt>
      <trkpt lat="48.55498" lon="-2.10366">
        <ele>56</ele>
        <time>2014-09-14T17:30:55Z</time>
      </trkpt>
      <trkpt lat="48.55496" lon="-2.10364">
        <ele>56</ele>
        <time>2014-09-14T17:31:50Z</time>
      </trkpt>
      <trkpt lat="48.5543" lon="-2.10291">
        <ele>53</ele>
        <time>2014-09-14T17:32:20Z</time>
      </trkpt>
      <trkpt lat="48.55398" lon="-2.10263">
        <ele>56</ele>
        <time>2014-09-14T17:32:29Z</time>
      </trkpt>
      <trkpt lat="48.55359" lon="-2.10238">
        <ele>59</ele>
        <time>2014-09-14T17:32:39Z</time>
      </trkpt>
      <trkpt lat="48.55351" lon="-2.10232">
        <ele>62</ele>
        <time>2014-09-14T17:32:41Z</time>
      </trkpt>
      <trkpt lat="48.55348" lon="-2.10227">
        <ele>59</ele>
        <time>2014-09-14T17:32:42Z</time>
      </trkpt>
      <trkpt lat="48.55345" lon="-2.10224">
        <ele>59</ele>
        <time>2014-09-14T17:32:43Z</time>
      </trkpt>
      <trkpt lat="48.55343" lon="-2.10219">
        <ele>57</ele>
        <time>2014-09-14T17:32:44Z</time>
      </trkpt>
      <trkpt lat="48.55235" lon="-2.10128">
        <ele>57</ele>
        <time>2014-09-14T17:33:14Z</time>
      </trkpt>
      <trkpt lat="48.55227" lon="-2.10123">
        <ele>58</ele>
        <time>2014-09-14T17:33:16Z</time>
      </trkpt>
      <trkpt lat="48.55222" lon="-2.10121">
        <ele>60</ele>
        <time>2014-09-14T17:33:17Z</time>
      </trkpt>
      <trkpt lat="48.55205" lon="-2.10096">
        <ele>59</ele>
        <time>2014-09-14T17:33:23Z</time>
      </trkpt>
      <trkpt lat="48.55218" lon="-2.10001">
        <ele>54</ele>
        <time>2014-09-14T17:33:41Z</time>
      </trkpt>
      <trkpt lat="48.55239" lon="-2.09891">
        <ele>64</ele>
        <time>2014-09-14T17:34:11Z</time>
      </trkpt>
      <trkpt lat="48.55238" lon="-2.09866">
        <ele>65</ele>
        <time>2014-09-14T17:34:17Z</time>
      </trkpt>
      <trkpt lat="48.55239" lon="-2.09741">
        <ele>67</ele>
        <time>2014-09-14T17:34:47Z</time>
      </trkpt>
      <trkpt lat="48.55261" lon="-2.09619">
        <ele>62</ele>
        <time>2014-09-14T17:35:17Z</time>
      </trkpt>
      <trkpt lat="48.55262" lon="-2.09562">
        <ele>65</ele>
        <time>2014-09-14T17:35:29Z</time>
      </trkpt>
      <trkpt lat="48.55205" lon="-2.09399">
        <ele>62</ele>
        <time>2014-09-14T17:36:03Z</time>
      </trkpt>
      <trkpt lat="48.55152" lon="-2.09273">
        <ele>62</ele>
        <time>2014-09-14T17:36:29Z</time>
      </trkpt>
      <trkpt lat="48.55082" lon="-2.09223">
        <ele>65</ele>
        <time>2014-09-14T17:36:52Z</time>
      </trkpt>
      <trkpt lat="48.55015" lon="-2.0918">
        <ele>66</ele>
        <time>2014-09-14T17:37:10Z</time>
      </trkpt>
      <trkpt lat="48.54914" lon="-2.09132">
        <ele>67</ele>
        <time>2014-09-14T17:37:40Z</time>
      </trkpt>
      <trkpt lat="48.54811" lon="-2.09063">
        <ele>65</ele>
        <time>2014-09-14T17:38:05Z</time>
      </trkpt>
      <trkpt lat="48.54808" lon="-2.09057">
        <ele>64</ele>
        <time>2014-09-14T17:38:06Z</time>
      </trkpt>
      <trkpt lat="48.54831" lon="-2.08844">
        <ele>61</ele>
        <time>2014-09-14T17:38:36Z</time>
      </trkpt>
      <trkpt lat="48.54831" lon="-2.08753">
        <ele>63</ele>
        <time>2014-09-14T17:38:49Z</time>
      </trkpt>
      <trkpt lat="48.54826" lon="-2.08635">
        <ele>62</ele>
        <time>2014-09-14T17:39:04Z</time>
      </trkpt>
      <trkpt lat="48.54827" lon="-2.08474">
        <ele>58</ele>
        <time>2014-09-14T17:39:34Z</time>
      </trkpt>
      <trkpt lat="48.54824" lon="-2.08435">
        <ele>58</ele>
        <time>2014-09-14T17:39:42Z</time>
      </trkpt>
      <trkpt lat="48.54807" lon="-2.08377">
        <ele>59</ele>
        <time>2014-09-14T17:39:54Z</time>
      </trkpt>
      <trkpt lat="48.54792" lon="-2.08332">
        <ele>60</ele>
        <time>2014-09-14T17:40:04Z</time>
      </trkpt>
      <trkpt lat="48.54741" lon="-2.08288">
        <ele>62</ele>
        <time>2014-09-14T17:40:22Z</time>
      </trkpt>
      <trkpt lat="48.54737" lon="-2.08287">
        <ele>62</ele>
        <time>2014-09-14T17:40:23Z</time>
      </trkpt>
      <trkpt lat="48.54638" lon="-2.08282">
        <ele>67</ele>
        <time>2014-09-14T17:40:48Z</time>
      </trkpt>
      <trkpt lat="48.54587" lon="-2.08273">
        <ele>68</ele>
        <time>2014-09-14T17:41:00Z</time>
      </trkpt>
      <trkpt lat="48.54539" lon="-2.08252">
        <ele>69</ele>
        <time>2014-09-14T17:41:13Z</time>
      </trkpt>
      <trkpt lat="48.54512" lon="-2.08229">
        <ele>68</ele>
        <time>2014-09-14T17:41:20Z</time>
      </trkpt>
      <trkpt lat="48.5448" lon="-2.08188">
        <ele>64</ele>
        <time>2014-09-14T17:41:31Z</time>
      </trkpt>
      <trkpt lat="48.54479" lon="-2.08181">
        <ele>64</ele>
        <time>2014-09-14T17:41:32Z</time>
      </trkpt>
      <trkpt lat="48.54497" lon="-2.08041">
        <ele>60</ele>
        <time>2014-09-14T17:41:57Z</time>
      </trkpt>
      <trkpt lat="48.54487" lon="-2.08034">
        <ele>59</ele>
        <time>2014-09-14T17:42:00Z</time>
      </trkpt>
      <trkpt lat="48.54417" lon="-2.08022">
        <ele>60</ele>
        <time>2014-09-14T17:42:20Z</time>
      </trkpt>
      <trkpt lat="48.54314" lon="-2.07966">
        <ele>65</ele>
        <time>2014-09-14T17:42:50Z</time>
      </trkpt>
      <trkpt lat="48.54282" lon="-2.07961">
        <ele>65</ele>
        <time>2014-09-14T17:42:59Z</time>
      </trkpt>
      <trkpt lat="48.54225" lon="-2.07957">
        <ele>66</ele>
        <time>2014-09-14T17:43:16Z</time>
      </trkpt>
      <trkpt lat="48.5416" lon="-2.07969">
        <ele>67</ele>
        <time>2014-09-14T17:43:36Z</time>
      </trkpt>
      <trkpt lat="48.54089" lon="-2.08011">
        <ele>68</ele>
        <time>2014-09-14T17:44:06Z</time>
      </trkpt>
      <trkpt lat="48.54008" lon="-2.08014">
        <ele>66</ele>
        <time>2014-09-14T17:44:36Z</time>
      </trkpt>
      <trkpt lat="48.53996" lon="-2.08013">
        <ele>67</ele>
        <time>2014-09-14T17:44:41Z</time>
      </trkpt>
      <trkpt lat="48.53989" lon="-2.08012">
        <ele>70</ele>
        <time>2014-09-14T17:44:44Z</time>
      </trkpt>
      <trkpt lat="48.5396" lon="-2.08002">
        <ele>71</ele>
        <time>2014-09-14T17:44:57Z</time>
      </trkpt>
      <trkpt lat="48.53881" lon="-2.07987">
        <ele>80</ele>
        <time>2014-09-14T17:45:27Z</time>
      </trkpt>
      <trkpt lat="48.53835" lon="-2.07983">
        <ele>82</ele>
        <time>2014-09-14T17:45:42Z</time>
      </trkpt>
      <trkpt lat="48.53774" lon="-2.07976">
        <ele>84</ele>
        <time>2014-09-14T17:46:06Z</time>
      </trkpt>
      <trkpt lat="48.53753" lon="-2.0797">
        <ele>85</ele>
        <time>2014-09-14T17:46:15Z</time>
      </trkpt>
      <trkpt lat="48.53675" lon="-2.07955">
        <ele>88</ele>
        <time>2014-09-14T17:46:45Z</time>
      </trkpt>
      <trkpt lat="48.53576" lon="-2.0795">
        <ele>83</ele>
        <time>2014-09-14T17:47:15Z</time>
      </trkpt>
      <trkpt lat="48.5357" lon="-2.07953">
        <ele>82</ele>
        <time>2014-09-14T17:47:16Z</time>
      </trkpt>
      <trkpt lat="48.53526" lon="-2.07962">
        <ele>78</ele>
        <time>2014-09-14T17:47:25Z</time>
      </trkpt>
      <trkpt lat="48.5339" lon="-2.08041">
        <ele>78</ele>
        <time>2014-09-14T17:47:55Z</time>
      </trkpt>
      <trkpt lat="48.53228" lon="-2.08101">
        <ele>71</ele>
        <time>2014-09-14T17:48:26Z</time>
      </trkpt>
      <trkpt lat="48.5321" lon="-2.08103">
        <ele>68</ele>
        <time>2014-09-14T17:48:29Z</time>
      </trkpt>
      <trkpt lat="48.53206" lon="-2.08099">
        <ele>67</ele>
        <time>2014-09-14T17:48:30Z</time>
      </trkpt>
      <trkpt lat="48.5318" lon="-2.08097">
        <ele>68</ele>
        <time>2014-09-14T17:48:35Z</time>
      </trkpt>
      <trkpt lat="48.53001" lon="-2.08066">
        <ele>67</ele>
        <time>2014-09-14T17:49:10Z</time>
      </trkpt>
      <trkpt lat="48.52949" lon="-2.08074">
        <ele>71</ele>
        <time>2014-09-14T17:49:20Z</time>
      </trkpt>
      <trkpt lat="48.52842" lon="-2.08075">
        <ele>72</ele>
        <time>2014-09-14T17:49:50Z</time>
      </trkpt>
      <trkpt lat="48.52788" lon="-2.08077">
        <ele>74</ele>
        <time>2014-09-14T17:50:10Z</time>
      </trkpt>
      <trkpt lat="48.52786" lon="-2.08076">
        <ele>73</ele>
        <time>2014-09-14T17:51:19Z</time>
      </trkpt>
      <trkpt lat="48.52702" lon="-2.08034">
        <ele>70</ele>
        <time>2014-09-14T17:51:49Z</time>
      </trkpt>
      <trkpt lat="48.52604" lon="-2.08051">
        <ele>63</ele>
        <time>2014-09-14T17:52:14Z</time>
      </trkpt>
      <trkpt lat="48.5247" lon="-2.08134">
        <ele>63</ele>
        <time>2014-09-14T17:52:37Z</time>
      </trkpt>
      <trkpt lat="48.52433" lon="-2.08134">
        <ele>66</ele>
        <time>2014-09-14T17:52:46Z</time>
      </trkpt>
      <trkpt lat="48.52431" lon="-2.08139">
        <ele>66</ele>
        <time>2014-09-14T17:52:47Z</time>
      </trkpt>
      <trkpt lat="48.52419" lon="-2.08191">
        <ele>63</ele>
        <time>2014-09-14T17:52:56Z</time>
      </trkpt>
      <trkpt lat="48.52412" lon="-2.0824">
        <ele>65</ele>
        <time>2014-09-14T17:53:06Z</time>
      </trkpt>
      <trkpt lat="48.52417" lon="-2.08243">
        <ele>66</ele>
        <time>2014-09-14T17:53:08Z</time>
      </trkpt>
      <trkpt lat="48.52484" lon="-2.08237">
        <ele>66</ele>
        <time>2014-09-14T17:53:33Z</time>
      </trkpt>
    </trkseg>
  </trk>
</gpx>